Lid_Strength_Index
-0 -0 0 3 11 12 15 12 8 9 9 6 5 7 8 7 9 12 2 1 0 0 -0 -1 -2 -1 -1 -1 -1 -1 -1 -1 -1 -1 -1 -1 -1 -1 -1 -1 -1 -1 -1 -1 -1 -1 -1 -1 -1
1 0 2 6 13 16 15 10 10 8 6 5 6 6 7 9 4 4 3 1 0 -0 -0 -0 -1 -2 -1 -1 -1 -1 -1 -1 -1 -1 -1 -1 -1 -1 -1 -1 -1 -1 -1 -1 -1 -1 -1 -1 -1
3 1 6 10 13 16 15 10 8 6 5 6 7 5 6 7 4 3 1 0 -0 0 -0 -0 -1 -1 -1 -1 -1 -1 -1 -1 -1 -1 -1 -1 -1 -1 -1 -1 -1 -1 -1 -1 -1 -1 -1 -1 -1
2 4 6 12 14 11 11 9 6 6 6 5 6 8 5 3 3 2 0 0 0 0 -0 -1 -1 -1 -1 -1 -1 -1 -1 -1 -1 -1 -1 -1 -1 -1 -1 -1 -1 -1 -1 -1 -1 -1 -1 -1 -1
2 6 12 13 13 10 8 7 6 7 7 7 6 8 7 3 1 1 1 0 1 0 -0 -0 -2 -1 -1 -1 -1 -1 -1 -2 -1 -1 -1 -1 -1 -1 -1 -1 -1 -1 -1 -1 -1 -1 -1 -1 -1
7 7 13 15 13 10 8 6 6 6 7 7 7 7 7 2 2 1 1 1 -0 0 -0 -0 -1 -1 -1 -2 -2 -1 -1 -2 -1 -1 -1 -1 -1 -1 -1 -1 -1 -1 -1 -1 -1 -1 -1 -1 -1
8 10 12 13 13 11 9 6 6 6 7 7 5 9 6 4 2 1 1 0 -0 -0 -0 -0 -0 -1 -1 -1 -1 -1 -2 -1 -1 -1 -1 -1 -1 -1 -1 -1 -1 -1 -1 -1 -1 -1 -1 -1 -1
6 9 12 12 13 13 8 7 6 6 7 4 4 9 8 4 1 1 1 1 0 0 0 0 0 0 0 0 -1 -1 -1 -1 -1 -1 -1 -1 -1 -1 -1 -2 -2 -1 -1 -1 -1 -1 -2 -2 -1
4 11 14 12 12 11 7 9 4 4 6 5 4 5 4 2 1 2 2 2 1 1 0 0 0 0 0 -0 -1 -1 -1 -1 -1 -0 -1 -1 -0 -0 -1 -1 -1 -1 -1 -1 -2 -2 -2 -2 -1
8 12 11 8 9 10 8 8 7 6 6 7 6 4 3 2 3 3 3 3 3 2 1 0 0 0 0 -0 0 -0 -1 -0 0 -0 -0 -0 -0 0 -1 -1 -1 -1 -1 -1 -1 -1 -2 -1 -1
8 10 8 8 7 7 8 7 6 6 8 6 7 5 4 3 3 3 3 3 3 2 1 0 1 1 1 0 0 0 -0 -0 -0 -0 -1 -0 -1 -0 0 0 0 1 1 -1 -1 -1 -0 0 -0
9 7 7 7 6 7 8 7 8 6 6 4 4 4 4 4 4 4 3 3 2 2 1 0 0 0 0 0 0 0 0 0 0 0 -0 0 0 0 -0 -0 -0 0 -1 -1 -0 -0 -0 -0 1
9 8 7 7 7 7 7 8 8 6 4 3 3 4 4 4 4 3 2 2 2 2 1 1 0 0 0 0 0 1 0 -0 -0 0 0 0 1 0 -0 -0 -0 -1 0 -0 0 0 0 0 -0
7 7 7 7 7 7 8 8 7 6 4 4 4 4 4 4 4 3 3 3 2 2 1 1 1 0 0 0 0 0 0 -0 0 0 0 -1 -0 1 0 0 0 -0 0 -0 1 1 1 0 -0
7 9 8 7 7 8 7 9 9 6 5 5 5 4 4 4 3 3 3 3 2 2 1 1 1 0 0 0 0 0 1 -0 0 0 -0 0 0 0 0 0 0 0 1 2 1 0 -0 0 -0
10 10 13 8 7 7 8 13 8 6 6 6 5 4 4 4 4 3 2 2 2 2 2 1 0 0 0 0 0 1 -0 0 -0 0 0 0 -0 0 0 0 0 1 0 0 1 1 1 1 1
11 15 13 11 7 8 9 12 8 6 6 7 5 5 5 4 4 3 2 2 2 1 1 1 1 1 1 0 0 0 1 0 -0 0 0 0 0 -0 0 0 0 0 0 1 2 2 2 1 1
14 14 12 13 9 9 10 10 8 6 7 7 6 5 5 5 4 3 2 2 1 1 1 1 1 1 1 1 1 0 0 0 -0 0 0 0 0 0 0 0 0 0 0 1 0 2 1 1 2
11 12 13 11 8 10 11 11 9 7 7 7 6 6 6 5 4 3 2 2 2 1 2 1 2 1 1 1 2 2 2 1 1 0 0 0 0 0 0 0 0 0 1 4 3 1 2 2 2
11 12 12 10 8 10 11 12 9 8 8 7 6 6 6 5 4 3 3 2 2 2 2 2 2 1 1 1 1 1 1 1 1 1 0 0 0 0 0 0 1 1 1 1 1 2 3 3 2
11 12 11 11 10 9 11 13 11 8 7 6 6 5 5 5 5 4 4 3 3 2 2 2 1 1 1 1 1 1 1 1 2 1 1 0 0 0 0 0 0 1 2 3 3 2 4 2 2
14 9 9 11 12 17 11 19 13 10 9 8 7 6 6 5 4 4 4 3 3 3 2 1 1 1 1 1 1 2 2 3 2 2 2 1 0 0 -0 0 0 0 1 2 1 2 1 2 4
10 7 8 8 10 13 12 16 13 10 11 10 8 7 6 5 4 4 4 3 2 2 2 2 1 1 1 1 1 2 2 2 1 1 1 1 0 0 -0 1 1 1 3 3 1 1 1 1 2
7 8 9 10 12 16 14 15 15 13 11 9 8 6 6 5 4 4 3 2 2 2 2 1 2 2 1 1 1 1 2 2 2 2 2 1 1 1 0 0 0 1 3 3 3 1 1 1 1
8 11 15 17 17 17 14 15 14 10 8 8 7 7 6 5 5 4 4 3 3 2 2 2 2 2 1 1 1 1 1 2 2 2 2 2 2 2 1 0 1 1 2 -0 1 1 1 1 1
10 12 15 20 18 16 13 16 13 8 7 7 7 6 5 5 4 4 4 3 3 3 2 2 2 2 2 1 1 1 1 1 1 1 1 1 2 1 1 0 0 0 1 1 0 1 1 1 1
11 12 11 14 13 15 14 11 9 8 8 8 8 6 6 5 5 4 4 3 3 3 2 2 2 2 2 1 1 1 1 1 1 1 1 1 1 1 0 1 1 0 0 0 0 1 1 1 1
10 10 14 13 16 18 14 14 14 10 9 7 7 6 6 5 5 4 4 3 3 3 2 2 2 2 2 1 1 1 1 1 1 1 1 2 1 1 1 2 1 1 1 0 1 1 1 1 1
11 12 11 12 13 16 19 16 9 9 8 8 7 6 6 5 5 4 4 3 3 2 2 2 2 2 2 1 1 1 1 1 1 1 1 1 1 2 2 1 1 1 1 1 1 1 1 1 1
9 10 12 14 14 14 14 15 7 8 7 6 6 5 5 5 5 4 4 4 3 3 3 2 2 2 2 1 1 1 1 1 1 1 1 1 1 1 1 1 1 1 1 1 1 1 1 1 2